Weather History for Monett, MO

Change the Weather History Date:

Monday, December 31, 2012

  Actual Average (KJLN) Record (KJLN)
Temperature  
Mean Temperature 34 °F 35 °F  
Max Temperature 35 °F 45 °F 74 °F (1951)
Min Temperature 32 °F 25 °F -5 °F (1976)
Degree Days  
Heating Degree Days 32 30  
Month to date heating degree days 861  
Since 1 July heating degree days 1617  
Cooling Degree Days 0 0  
Month to date cooling degree days 0  
Year to date cooling degree days 1698  
Moisture  
Dew Point 32 °F    
Average Humidity 95    
Maximum Humidity 100    
Minimum Humidity 56    
Precipitation  
Precipitation 0.12 in 0.07 in 2.66 in (1984)
Month to date precipitation 2.82  
Year to date precipitation 46.55  
Sea Level Pressure  
Sea Level Pressure 30.07 in    
Wind  
Wind Speed 5 mph (SE)    
Max Wind Speed 9 mph    
Max Gust Speed -    
Visibility 4 miles    
Events Fog , Rain , Snow    
T = Trace of Precipitation, MM = Missing Value Source: NWS Daily Summary

Daily Weather History Graph

Daily Weather History Graph

Search for Another Location

Airport:

Trip Planner

Search our weather history database for the weather conditions in past years. The results will help you decide how hot, cold, wet, or windy it might be!

Date:

Astronomy

Dec. 31, 2012 Rise Set
Actual Time 7:29 AM CST 5:09 PM CST
Civil Twilight 7:00 AM CST 5:38 PM CST
Nautical Twilight 6:27 AM CST 6:11 PM CST
Astronomical Twilight 5:56 AM CST 6:42 PM CST
Moon 8:35 PM CST (12/31) 9:15 AM CST (12/31)
Length of Visible Light 10h 38m
Length of Day
9h 40m
Waning Gibbous, 90% of the Moon is Illuminated
Dec 31
Waning Gibbous
Jan 4
Last Quarter
Jan 11
New
Jan 18
First Quarter
Jan 26
Full

Hourly Weather History & Observations

Time (CST) Temp. Windchill Dew Point Humidity Pressure Visibility Wind Dir Wind Speed Gust Speed Precip Events Conditions
12:15 AM 35.6 °F 29.9 °F 21.2 °F 56% 30.20 in 10.0 mi SSW 6.9 mph - N/A   Clear
12:35 AM 35.6 °F 29.9 °F 21.2 °F 56% 30.20 in 10.0 mi South 6.9 mph - N/A   Clear
12:55 AM 33.8 °F 28.6 °F 21.2 °F 60% 30.20 in 10.0 mi South 5.8 mph - N/A   Clear
1:15 AM 33.8 °F 27.7 °F 21.2 °F 60% 30.18 in 10.0 mi SSE 6.9 mph - N/A   Mostly Cloudy
1:35 AM 35.6 °F 29.2 °F 21.2 °F 56% 30.17 in 10.0 mi SSE 8.1 mph - N/A   Overcast
1:55 AM 35.6 °F 28.6 °F 21.2 °F 56% 30.18 in 10.0 mi South 9.2 mph - N/A   Light Drizzle
2:15 AM 35.6 °F 28.6 °F 24.8 °F 65% 30.18 in 10.0 mi South 9.2 mph - N/A   Drizzle
2:35 AM 33.8 °F 26.4 °F 28.4 °F 81% 30.18 in 10.0 mi South 9.2 mph - N/A Rain Light Rain
2:55 AM 33.8 °F 27.0 °F 30.2 °F 87% 30.18 in 7.0 mi South 8.1 mph - 0.01 in Rain Light Rain
3:15 AM 32.0 °F 26.4 °F 32.0 °F 100% 30.18 in 7.0 mi SW 5.8 mph - 0.01 in Rain Rain
3:35 AM 32.0 °F 26.4 °F 32.0 °F 100% 30.17 in 7.0 mi SSW 5.8 mph - 0.03 in Rain Rain
3:55 AM 32.0 °F 27.5 °F 32.0 °F 100% 30.17 in 7.0 mi SSW 4.6 mph - 0.04 in Rain Rain
4:15 AM 32.0 °F 28.7 °F 32.0 °F 100% 30.16 in 5.0 mi SSW 3.5 mph - 0.01 in Rain Rain
4:35 AM 32.0 °F 27.5 °F 32.0 °F 100% 30.16 in 4.0 mi South 4.6 mph - 0.02 in Snow Light Snow
4:55 AM 32.0 °F 27.5 °F 32.0 °F 100% 30.15 in 3.0 mi South 4.6 mph - 0.02 in Snow Light Snow
5:15 AM 32.0 °F 25.6 °F 32.0 °F 100% 30.16 in 4.0 mi South 6.9 mph - N/A Snow Light Snow
5:35 AM 32.0 °F 26.4 °F 32.0 °F 100% 30.16 in 4.0 mi South 5.8 mph - 0.01 in   Overcast
5:55 AM 32.0 °F 25.6 °F 32.0 °F 100% 30.14 in 4.0 mi South 6.9 mph - 0.02 in Snow Light Snow
6:15 AM 32.0 °F 24.8 °F 32.0 °F 100% 30.15 in 3.0 mi South 8.1 mph - N/A Snow Light Snow
6:35 AM 32.0 °F 25.6 °F 32.0 °F 100% 30.14 in 3.0 mi South 6.9 mph - 0.01 in   Overcast
6:55 AM 32.0 °F 26.4 °F 32.0 °F 100% 30.14 in 4.0 mi South 5.8 mph - 0.01 in Snow Light Snow
7:15 AM 32.0 °F 27.5 °F 32.0 °F 100% 30.13 in 3.0 mi SSE 4.6 mph - N/A Rain Light Rain
7:35 AM 32.0 °F 28.7 °F 32.0 °F 100% 30.12 in 4.0 mi SE 3.5 mph - N/A Rain Rain
7:55 AM 32.0 °F 28.7 °F 32.0 °F 100% 30.11 in 4.0 mi SE 3.5 mph - N/A Rain Light Rain
8:15 AM 32.0 °F - 32.0 °F 100% 30.12 in 4.0 mi Calm Calm - N/A Rain Light Rain
8:35 AM 32.0 °F 28.7 °F 32.0 °F 100% 30.12 in 4.0 mi SSE 3.5 mph - N/A   Drizzle
8:55 AM 32.0 °F - 32.0 °F 100% 30.12 in 4.0 mi Calm Calm - N/A Rain Light Rain
9:15 AM 32.0 °F 27.5 °F 32.0 °F 100% 30.11 in 2.5 mi SE 4.6 mph - N/A Rain Light Rain
9:35 AM 32.0 °F 25.6 °F 32.0 °F 100% 30.10 in 3.0 mi SE 6.9 mph - N/A   Drizzle
9:55 AM 32.0 °F 26.4 °F 32.0 °F 100% 30.11 in 4.0 mi SE 5.8 mph - N/A   Drizzle
10:15 AM 32.0 °F 28.7 °F 32.0 °F 100% 30.13 in 3.0 mi SE 3.5 mph - N/A Rain Light Rain
10:35 AM 32.0 °F 28.7 °F 32.0 °F 100% 30.13 in 2.5 mi SE 3.5 mph - N/A Rain Light Rain
10:55 AM 33.8 °F 28.6 °F 32.0 °F 93% 30.11 in 3.0 mi ESE 5.8 mph - 0.01 in Rain Light Rain
11:15 AM 33.8 °F 30.8 °F 32.0 °F 93% 30.10 in 5.0 mi ESE 3.5 mph - N/A Rain Rain
11:35 AM 33.8 °F 28.6 °F 32.0 °F 93% 30.08 in 2.5 mi ESE 5.8 mph - N/A Rain Light Rain
11:55 AM 33.8 °F 27.7 °F 32.0 °F 93% 30.07 in 3.0 mi SE 6.9 mph - N/A Rain Rain
12:15 PM 33.8 °F 27.0 °F 33.8 °F 100% 30.06 in 4.0 mi SE 8.1 mph - 0.01 in Rain Rain
12:35 PM 33.8 °F 27.0 °F 33.8 °F 100% 30.04 in 4.0 mi SE 8.1 mph - 0.01 in Rain Light Rain
12:55 PM 33.8 °F 29.6 °F 33.8 °F 100% 30.03 in 4.0 mi SE 4.6 mph - 0.01 in   Drizzle
1:15 PM 33.8 °F 30.8 °F 33.8 °F 100% 30.01 in 3.0 mi ESE 3.5 mph - N/A   Heavy Drizzle
1:35 PM 33.8 °F 29.6 °F 33.8 °F 100% 30.00 in 3.0 mi ESE 4.6 mph - N/A   Drizzle
1:55 PM 33.8 °F 28.6 °F 33.8 °F 100% 29.99 in 2.5 mi ESE 5.8 mph - N/A   Drizzle
2:15 PM 33.8 °F 29.6 °F 33.8 °F 100% 29.99 in 2.5 mi ESE 4.6 mph - N/A   Drizzle
2:35 PM 35.6 °F 32.8 °F 33.8 °F 93% 29.99 in 2.0 mi East 3.5 mph - N/A   Drizzle
2:55 PM 35.6 °F - 33.8 °F 93% 29.98 in 2.5 mi Calm Calm - N/A   Drizzle
3:15 PM 35.6 °F 32.8 °F 35.6 °F 100% 29.97 in 2.0 mi East 3.5 mph - N/A   Light Drizzle
3:35 PM 35.6 °F 31.7 °F 35.6 °F 100% 29.97 in 1.8 mi ESE 4.6 mph - N/A Rain Light Rain
3:55 PM 35.6 °F 31.7 °F 35.6 °F 100% 29.97 in 1.8 mi SE 4.6 mph - N/A   Overcast
4:15 PM 35.6 °F 31.7 °F 35.6 °F 100% 29.98 in 1.8 mi SE 4.6 mph - N/A   Overcast
4:35 PM 35.6 °F 32.8 °F 35.6 °F 100% 29.97 in 2.0 mi ESE 3.5 mph - N/A   Overcast
4:55 PM 35.6 °F 32.8 °F 35.6 °F 100% 29.97 in 2.5 mi ESE 3.5 mph - N/A   Overcast
5:15 PM 35.6 °F - 35.6 °F 100% 29.97 in 3.0 mi Calm Calm - N/A   Overcast
5:35 PM 35.6 °F - 35.6 °F 100% 29.97 in 2.5 mi Calm Calm - N/A   Overcast
6:15 PM 35.6 °F - 35.6 °F 100% 29.99 in 2.0 mi Calm Calm - N/A Rain Rain
6:35 PM 35.6 °F - 35.6 °F 100% 29.99 in 2.0 mi Calm Calm - N/A   Drizzle
6:55 PM 35.6 °F 32.8 °F 35.6 °F 100% 29.99 in 2.5 mi East 3.5 mph - N/A   Light Drizzle
7:15 PM 35.6 °F 32.8 °F 35.6 °F 100% 29.99 in 3.0 mi East 3.5 mph - N/A   Overcast
7:35 PM 35.6 °F - 35.6 °F 100% 30.00 in 2.5 mi Calm Calm - N/A   Overcast
7:55 PM 35.6 °F - 35.6 °F 100% 29.99 in 2.0 mi Calm Calm - N/A   Drizzle
8:15 PM 33.8 °F - 33.8 °F 100% 30.00 in 1.2 mi Calm Calm - N/A   Light Drizzle
8:35 PM 33.8 °F - 33.8 °F 100% 30.00 in 2.5 mi Calm Calm - N/A   Overcast
8:55 PM 33.8 °F - 33.8 °F 100% 30.00 in 2.5 mi Calm Calm - N/A   Overcast
9:15 PM 33.8 °F - 33.8 °F 100% 30.00 in 2.0 mi Calm Calm - N/A   Overcast
9:35 PM 33.8 °F - 33.8 °F 100% 30.01 in 1.5 mi Calm Calm - N/A   Overcast
9:55 PM 33.8 °F 30.8 °F 33.8 °F 100% 30.01 in 1.0 mi ENE 3.5 mph - N/A   Overcast
10:15 PM 33.8 °F - 33.8 °F 100% 30.01 in 0.5 mi Calm Calm - N/A Fog Fog
10:35 PM 33.8 °F - 33.8 °F 100% 30.02 in 0.5 mi Calm Calm - N/A Fog Fog
10:55 PM 33.8 °F - 33.8 °F 100% 30.02 in 0.5 mi Calm Calm - N/A Fog Fog
11:15 PM 33.8 °F - 33.8 °F 100% 30.03 in 0.5 mi Calm Calm - N/A Fog Fog
11:35 PM 33.8 °F 30.8 °F 33.8 °F 100% 30.03 in 0.8 mi North 3.5 mph - N/A   Overcast
11:55 PM 33.8 °F 29.6 °F 33.8 °F 100% 30.03 in 0.8 mi North 4.6 mph - N/A   Overcast